Location: Newark
(48.4472°N, 1.4892°E)
Time: 12:45:01
(UTC+00:00)

Vanguard 1 Rocket - Visible Passes

Search period start: 17 November 2019 00:00
Search period end: 27 November 2019 00:00
Orbit: 651 x 4225 km, 34.3° (Epoch: 16 November)

Date Brightness Start Highest point End Pass type
(mag) Time Alt. Az. Time Alt. Az. Time Alt. Az.
17 Nov 9.1 04:14:52 14° S 04:15:40 14° SSE 04:18:24 10° SE visible
18 Nov 9.1 05:25:28 10° SW 05:28:53 19° S 05:33:14 10° SE visible
19 Nov 9.0 04:18:00 15° S 04:18:21 15° SSE 04:21:17 10° SE visible
20 Nov 9.0 05:28:29 10° SW 05:31:39 17° S 05:35:31 10° SE visible
21 Nov 8.9 04:21:06 15° S 04:21:06 15° S 04:24:01 10° SE visible
22 Nov 9.0 05:31:44 10° SW 05:34:25 15° S 05:37:35 10° SSE visible
23 Nov 9.0 04:24:11 15° S 04:24:11 15° S 04:26:34 10° SE visible
24 Nov 9.1 05:35:21 10° SSW 05:37:12 12° S 05:39:14 10° SSE visible
25 Nov 9.1 04:27:16 13° S 04:27:16 13° S 04:28:55 10° SSE visible
